Home > Weather > Steffisburg > Past weeks

Flag for Switzerland Weather for the Past 2 Weeks in Steffisburg, Bern, Switzerland

Now
32 °F

Clear.


Feels Like: 32 °F
Forecast: 32 / 45 °F
Wind: 1 mph from North

Location: Bern / Belp

Current Time: Feb 6, 2016 at 2:10:46 AM

Latest Report: Feb 6, 2016 at 1:20 AM


Visibility: 10 mi

Pressure: 30.21 "Hg (28.09 "Hg at 582m altitude)

Humidity: 100%

Dew point: 32 °F

Location of SteffisburgLocation

Historic Weather in Steffisburg — Graph

°F

Steffisburg Temperature Yesterday

Maximum temperature yesterday: 54 °F (at 2:50 PM)
Minimum temperature yesterday: 32 °F (at 11:20 PM)
Average temperature yesterday: 42 °F

High & Low Weather Summary for the Past Weeks

 TemperatureHumidityPressure
High59 °F (Feb 1, 11:50 AM)100% (Jan 22, 8:20 PM)30.60 "Hg (Jan 22, 8:20 PM)
Low25 °F (Jan 24, 1:20 AM)54% (Jan 25, 2:20 PM)30.01 "Hg (Jan 30, 11:50 PM)
Average40 °F87%30.34 "Hg
* Reported Jan 22 12:20 AM — Feb 6 12:50 AM, Steffisburg, Weather by CustomWeather, © 2016

Note: Actual official high and low records may vary slightly from our data, if they occured in-between our weather recording intervals... More about our weather records

Advertising

Steffisburg Weather History for the Previous 24 Hours

 ConditionsComfort  
Time TempWeatherWind HumidityBarometerVisibility
12:50 AM
Sat, Feb 6
32 °FClear.3 mph100%30.24 "Hg10 mi
12:20 AM32 °FClear.2 mph100%30.24 "Hg10 mi
11:50 PM
Fri, Feb 5
32 °FClear.2 mph100%30.24 "Hg10 mi
11:20 PM32 °FClear.3 mph100%30.24 "Hg10 mi
10:50 PM34 °FClear.2 mph100%30.24 "Hg10 mi
10:20 PM34 °FClear.1 mph100%30.24 "Hg10 mi
9:50 PM34 °FPassing clouds.3 mph100%30.27 "HgN/A
9:20 PM34 °FPassing clouds.2 mph100%30.27 "HgN/A
8:50 PM34 °FClear.2 mph100%30.27 "Hg10 mi
8:20 PM36 °FClear.2 mph100%30.27 "Hg10 mi
7:50 PM37 °FClear.1 mph100%30.27 "Hg10 mi
7:20 PM39 °FClear.3 mph93%30.27 "Hg10 mi
6:50 PM41 °FClear.3 mph93%30.27 "Hg10 mi
6:20 PM41 °FPassing clouds.5 mph93%30.27 "HgN/A
5:50 PM43 °FClear.3 mph93%30.27 "Hg10 mi
5:20 PM46 °FSunny.2 mph82%30.27 "Hg10 mi
4:50 PM50 °FPassing clouds.3 mph76%30.27 "HgN/A
4:20 PM50 °FPassing clouds.2 mph76%30.27 "HgN/A
3:50 PM54 °FPassing clouds.5 mph67%30.30 "HgN/A
3:20 PM54 °FPassing clouds.3 mph63%30.30 "HgN/A
2:50 PM54 °FPassing clouds.3 mph67%30.30 "HgN/A
2:20 PM52 °FPassing clouds.5 mph72%30.30 "HgN/A
1:50 PM52 °FPassing clouds.5 mph72%30.33 "HgN/A
1:20 PM50 °FPassing clouds.5 mph71%30.33 "HgN/A
12:50 PM50 °FPassing clouds.3 mph76%30.36 "HgN/A
12:20 PM48 °FPassing clouds.5 mph82%30.36 "HgN/A
11:50 AM46 °FPassing clouds.3 mph87%30.39 "HgN/A
11:20 AM46 °FPassing clouds.5 mph87%30.39 "HgN/A
10:50 AM45 °FScattered clouds.2 mph87%30.39 "HgN/A
10:20 AM43 °FPassing clouds.3 mph100%30.39 "HgN/A
9:50 AM41 °FScattered clouds.5 mph100%30.39 "HgN/A
9:20 AM41 °FBroken clouds.3 mph100%30.39 "HgN/A
8:50 AM37 °FBroken clouds.5 mph100%30.39 "HgN/A
8:20 AM39 °FPartly sunny.1 mph100%30.39 "HgN/A
7:50 AM39 °FBroken clouds.3 mph100%30.39 "Hg6 mi
7:20 AM39 °FPartly cloudy.1 mph100%30.39 "HgN/A
6:20 AM39 °FPartly cloudy.2 mph100%30.39 "HgN/A
5:50 AM39 °FPassing clouds.2 mph100%30.39 "HgN/A
5:20 AM39 °FPartly cloudy.2 mph100%30.39 "HgN/A
4:50 AM39 °FPartly cloudy.1 mph100%30.39 "HgN/A
4:20 AM39 °FLight rain. Partly cloudy.1 mph100%30.42 "HgN/A
3:50 AM39 °FLight rain. Partly cloudy.5 mph100%30.39 "HgN/A
3:20 AM39 °FMostly cloudy.1 mph100%30.39 "HgN/A
2:50 AM41 °FOvercast.3 mph87%30.39 "HgN/A
2:20 AM41 °FPartly cloudy.8 mph93%30.39 "HgN/A
Weather by CustomWeather, © 2016

See weather overviewHow to use our weather pages